Weather History for Grand Marais Airport, MN

Change the Weather History Date:

Wednesday, October 23, 2013

  Actual Average Record
Temperature  
Mean Temperature 27 °F -  
Max Temperature 30 °F 42 °F 69 °F (1998)
Min Temperature 24 °F 30 °F 19 °F (1997)
Degree Days  
Heating Degree Days 38    
Moisture  
Dew Point 20 °F    
Average Humidity 73    
Maximum Humidity 93    
Minimum Humidity 64    
Precipitation  
Precipitation 0.00 in - - ()
Sea Level Pressure  
Sea Level Pressure 29.86 in    
Wind  
Wind Speed 8 mph (WNW)    
Max Wind Speed 14 mph    
Max Gust Speed 25 mph    
Visibility 10 miles    
Events Snow    
Averages and records for this station are not official NWS values.
T = Trace of Precipitation, MM = Missing Value Source: NWS Daily Summary

Daily Weather History Graph

Daily Weather History Graph

Search for Another Location

Airport:

Trip Planner

Search our weather history database for the weather conditions in past years. The results will help you decide how hot, cold, wet, or windy it might be!

Date:

Astronomy

Oct. 23, 2013 Rise Set
Actual Time 7:32 AM CDT 5:57 PM CDT
Civil Twilight 7:01 AM CDT 6:29 PM CDT
Nautical Twilight 6:25 AM CDT 7:05 PM CDT
Astronomical Twilight 5:49 AM CDT 7:41 PM CDT
Moon 9:18 PM CDT (10/23) 12:01 PM CDT (10/23)
Length of Visible Light 11h 28m
Length of Day
10h 25m
Waning Gibbous, 79% of the Moon is Illuminated
Oct 23
Waning Gibbous
Oct 26
Last Quarter
Nov 3
New
Nov 9
First Quarter
Nov 17
Full

Hourly Weather History & Observations

Time (CDT) Temp. Windchill Dew Point Humidity Pressure Visibility Wind Dir Wind Speed Gust Speed Precip Events Conditions
12:13 AM 26.6 °F 19.1 °F 19.4 °F 74% 29.86 in 10.0 mi West 6.9 mph - N/A   Clear
12:34 AM 26.6 °F 20.0 °F 21.2 °F 80% 29.86 in 10.0 mi West 5.8 mph - N/A   Scattered Clouds
12:53 AM 26.6 °F 20.0 °F 21.2 °F 80% 29.86 in 10.0 mi West 5.8 mph - N/A   Scattered Clouds
1:14 AM 26.6 °F 20.0 °F 21.2 °F 80% 29.85 in 10.0 mi West 5.8 mph - N/A   Mostly Cloudy
1:34 AM 26.6 °F 20.0 °F 21.2 °F 80% 29.85 in 10.0 mi West 5.8 mph - N/A   Overcast
1:53 AM 26.6 °F 19.1 °F 21.2 °F 80% 29.85 in 10.0 mi West 6.9 mph - N/A   Overcast
2:14 AM 26.6 °F 19.1 °F 21.2 °F 80% 29.84 in 10.0 mi West 6.9 mph - N/A   Overcast
2:33 AM 26.6 °F 20.0 °F 21.2 °F 80% 29.84 in 10.0 mi West 5.8 mph - N/A   Overcast
2:54 AM 28.4 °F 23.3 °F 23.0 °F 80% 29.84 in 10.0 mi West 4.6 mph - N/A   Overcast
3:13 AM 28.4 °F 22.2 °F 23.0 °F 80% 29.83 in 10.0 mi West 5.8 mph - N/A   Overcast
3:34 AM 26.6 °F 20.0 °F 23.0 °F 86% 29.83 in 10.0 mi West 5.8 mph - N/A   Overcast
3:54 AM 26.6 °F 20.0 °F 23.0 °F 86% 29.83 in 7.0 mi West 5.8 mph - N/A   Mostly Cloudy
4:13 AM 26.6 °F 22.6 °F 23.0 °F 86% 29.83 in 10.0 mi West 3.5 mph - N/A   Scattered Clouds
4:34 AM 26.6 °F 21.2 °F 24.8 °F 93% 29.83 in 1.2 mi NW 4.6 mph - N/A Snow Light Snow
4:53 AM 26.6 °F 20.0 °F 23.0 °F 86% 29.83 in 10.0 mi WNW 5.8 mph - N/A   Mostly Cloudy
5:14 AM 26.6 °F 20.0 °F 21.2 °F 80% 29.83 in 10.0 mi NW 5.8 mph - N/A   Scattered Clouds
5:34 AM 26.6 °F 18.2 °F 21.2 °F 80% 29.84 in 10.0 mi NW 8.1 mph - N/A   Mostly Cloudy
5:53 AM 26.6 °F 19.1 °F 19.4 °F 74% 29.83 in 10.0 mi NW 6.9 mph - N/A   Mostly Cloudy
6:13 AM 26.6 °F 20.0 °F 19.4 °F 74% 29.83 in 10.0 mi WNW 5.8 mph - N/A   Scattered Clouds
6:34 AM 24.8 °F 20.5 °F 19.4 °F 80% 29.83 in 10.0 mi WNW 3.5 mph - N/A   Scattered Clouds
6:53 AM 24.8 °F 16.9 °F 19.4 °F 80% 29.83 in 10.0 mi WNW 6.9 mph - N/A   Clear
7:13 AM 24.8 °F 16.9 °F 19.4 °F 80% 29.83 in 10.0 mi WNW 6.9 mph - N/A   Clear
7:34 AM 24.8 °F 15.3 °F 19.4 °F 80% 29.83 in 10.0 mi WNW 9.2 mph 18.4 mph N/A   Clear
7:53 AM 24.8 °F 15.3 °F 19.4 °F 80% 29.83 in 10.0 mi WNW 9.2 mph - N/A   Clear
8:13 AM 24.8 °F 16.9 °F 19.4 °F 80% 29.83 in 10.0 mi NW 6.9 mph - N/A   Clear
8:34 AM 24.8 °F 19.1 °F 19.4 °F 80% 29.84 in 10.0 mi NW 4.6 mph - N/A   Clear
8:53 AM 24.8 °F 16.1 °F 17.6 °F 74% 29.84 in 10.0 mi WNW 8.1 mph 17.3 mph N/A   Clear
9:13 AM 26.6 °F 18.2 °F 19.4 °F 74% 29.84 in 10.0 mi WNW 8.1 mph 17.3 mph N/A   Clear
9:33 AM 28.4 °F 18.0 °F 17.6 °F 64% 29.84 in 10.0 mi NW 12.7 mph 25.3 mph N/A   Scattered Clouds
9:54 AM 28.4 °F 18.0 °F 17.6 °F 64% 29.84 in 10.0 mi NW 12.7 mph 21.9 mph N/A   Scattered Clouds
10:13 AM 28.4 °F 18.5 °F 17.6 °F 64% 29.84 in 10.0 mi NW 11.5 mph 21.9 mph N/A   Mostly Cloudy
10:33 AM 28.4 °F 18.5 °F 17.6 °F 64% 29.84 in 10.0 mi WNW 11.5 mph 21.9 mph N/A   Overcast
10:54 AM 28.4 °F 19.1 °F 17.6 °F 64% 29.85 in 10.0 mi WNW 10.4 mph 19.6 mph N/A   Overcast
11:13 AM 28.4 °F 19.7 °F 17.6 °F 64% 29.86 in 10.0 mi WNW 9.2 mph 18.4 mph N/A   Overcast
11:33 AM 28.4 °F 19.7 °F 19.4 °F 69% 29.86 in 10.0 mi WNW 9.2 mph 20.7 mph N/A   Overcast
11:54 AM 28.4 °F 19.1 °F 17.6 °F 64% 29.86 in 10.0 mi WNW 10.4 mph 19.6 mph N/A   Mostly Cloudy
12:13 PM 30.2 °F 22.6 °F 19.4 °F 64% 29.86 in 10.0 mi WNW 8.1 mph 17.3 mph N/A   Mostly Cloudy
12:34 PM 30.2 °F 22.6 °F 19.4 °F 64% 29.86 in 10.0 mi NW 8.1 mph - N/A   Overcast
12:54 PM 28.4 °F 18.5 °F 19.4 °F 69% 29.86 in 10.0 mi WNW 11.5 mph 18.4 mph N/A   Overcast
1:13 PM 30.2 °F 21.3 °F 19.4 °F 64% 29.85 in 10.0 mi NW 10.4 mph 18.4 mph N/A   Overcast
1:34 PM 30.2 °F 22.6 °F 19.4 °F 64% 29.86 in 10.0 mi NW 8.1 mph 16.1 mph N/A   Overcast
1:54 PM 30.2 °F 22.6 °F 19.4 °F 64% 29.86 in 10.0 mi NW 8.1 mph 16.1 mph N/A   Overcast
2:13 PM 30.2 °F 22.6 °F 19.4 °F 64% 29.86 in 10.0 mi WNW 8.1 mph 18.4 mph N/A   Overcast
2:34 PM 30.2 °F 20.2 °F 19.4 °F 64% 29.86 in 10.0 mi NW 12.7 mph 23.0 mph N/A   Overcast
2:53 PM 30.2 °F 19.8 °F 19.4 °F 64% 29.86 in 10.0 mi NW 13.8 mph 17.3 mph N/A   Overcast
3:13 PM 30.2 °F 21.9 °F 19.4 °F 64% 29.86 in 10.0 mi NW 9.2 mph 17.3 mph N/A   Overcast
3:34 PM 30.2 °F 22.6 °F 19.4 °F 64% 29.86 in 10.0 mi NW 8.1 mph 21.9 mph N/A   Overcast
3:53 PM 28.4 °F 19.7 °F 19.4 °F 69% 29.87 in 10.0 mi WNW 9.2 mph 16.1 mph N/A   Overcast
4:13 PM 28.4 °F 18.5 °F 19.4 °F 69% 29.87 in 10.0 mi NW 11.5 mph 18.4 mph N/A   Overcast
4:34 PM 28.4 °F 18.0 °F 19.4 °F 69% 29.88 in 10.0 mi NW 12.7 mph 16.1 mph N/A   Overcast
4:53 PM 28.4 °F 20.4 °F 19.4 °F 69% 29.88 in 10.0 mi WNW 8.1 mph 19.6 mph N/A   Overcast
5:13 PM 28.4 °F 19.1 °F 19.4 °F 69% 29.88 in 10.0 mi WNW 10.4 mph 18.4 mph N/A   Overcast
5:34 PM 28.4 °F 19.7 °F 19.4 °F 69% 29.88 in 10.0 mi WNW 9.2 mph 17.3 mph N/A   Overcast
5:53 PM 28.4 °F 19.1 °F 19.4 °F 69% 29.89 in 10.0 mi WNW 10.4 mph 18.4 mph N/A   Overcast
6:14 PM 28.4 °F 20.4 °F 19.4 °F 69% 29.89 in 10.0 mi NW 8.1 mph 20.7 mph N/A   Mostly Cloudy
6:34 PM 28.4 °F 22.2 °F 21.2 °F 74% 29.89 in 10.0 mi NW 5.8 mph - N/A   Scattered Clouds
6:53 PM 28.4 °F 18.0 °F 21.2 °F 74% 29.90 in 10.0 mi NW 12.7 mph 19.6 mph N/A   Overcast
7:14 PM 28.4 °F 18.0 °F 19.4 °F 69% 29.90 in 10.0 mi NW 12.7 mph 19.6 mph N/A   Overcast
7:34 PM 28.4 °F 19.1 °F 19.4 °F 69% 29.90 in 10.0 mi NW 10.4 mph 17.3 mph N/A   Overcast
7:53 PM 28.4 °F 19.7 °F 19.4 °F 69% 29.91 in 10.0 mi NW 9.2 mph - N/A   Mostly Cloudy
8:13 PM 28.4 °F 20.4 °F 19.4 °F 69% 29.90 in 10.0 mi NW 8.1 mph 16.1 mph N/A   Mostly Cloudy
8:34 PM 28.4 °F 20.4 °F 19.4 °F 69% 29.90 in 10.0 mi WNW 8.1 mph - N/A   Overcast
8:53 PM 28.4 °F 20.4 °F 19.4 °F 69% 29.90 in 10.0 mi NW 8.1 mph 23.0 mph N/A   Overcast
9:13 PM 28.4 °F 18.5 °F 19.4 °F 69% 29.90 in 10.0 mi NW 11.5 mph 17.3 mph N/A   Overcast
9:33 PM 28.4 °F 18.5 °F 19.4 °F 69% 29.91 in 10.0 mi NW 11.5 mph 19.6 mph N/A   Overcast
9:54 PM 28.4 °F 19.1 °F 21.2 °F 74% 29.91 in 10.0 mi NW 10.4 mph - N/A   Overcast
10:13 PM 28.4 °F 19.7 °F 21.2 °F 74% 29.91 in 10.0 mi NW 9.2 mph 19.6 mph N/A   Mostly Cloudy
10:33 PM 26.6 °F 17.5 °F 21.2 °F 80% 29.91 in 10.0 mi NW 9.2 mph 18.4 mph N/A   Scattered Clouds
10:54 PM 26.6 °F 16.8 °F 21.2 °F 80% 29.90 in 10.0 mi NW 10.4 mph 18.4 mph N/A   Clear
11:14 PM 28.4 °F 18.5 °F 21.2 °F 74% 29.90 in 10.0 mi NW 11.5 mph 24.2 mph N/A   Clear
11:33 PM 28.4 °F 18.0 °F 21.2 °F 74% 29.91 in 10.0 mi NW 12.7 mph 24.2 mph N/A   Clear
11:53 PM 28.4 °F 20.4 °F 21.2 °F 74% 29.92 in 10.0 mi NW 8.1 mph - N/A   Mostly Cloudy